Regional Weather Roundup
Issued by NWS

Home | Current Version | Previous Version | Graphics & Text | Print | Product List | Glossary On
Versions: 1 2 3 4 5 6 7 8 9 10 11 12 13 14 15 16 17 18 19 20 21 22 23 24 25 26 27
000
ASUS45 KCYS 112010
RWRWY

WYOMING REGIONAL WEATHER ROUNDUP
NATIONAL WEATHER SERVICE CHEYENNE WY
100 PM MST MON DEC 11 2017

NOTE:  "FAIR" INDICATES FEW OR NO CLOUDS BELOW 12,000 FEET
WITH NO SIGNIFICANT WEATHER AND/OR OBSTRUCTIONS TO VISIBILITY.

WYZ001-112100-
YELLOWSTONE NATIONAL PARK

CITY           SKY/WX    TMP DP  RH WIND       PRES   REMARKS
LK YELLOWSTONE   N/A     28  20  71 CALM      30.56F
W YELLOWSTONE  NOT AVBL

$$
WYZ002>013-054>058-071-098>099-112100-
NORTHERN WYOMING

CITY           SKY/WX    TMP DP  RH WIND       PRES   REMARKS
JACKSON        FAIR      31  16  54 VRB3      30.57
CODY           FAIR      49  10  20 N8        30.44F
GREYBULL       FAIR      36  17  46 N3        30.45F
WORLAND        FAIR      41  18  39 CALM      30.43F
SHERIDAN       FAIR      49  18  29 NW14      30.41F
BUFFALO        FAIR      47  12  24 N21G33    30.39F
GILLETTE       FAIR      48  15  26 NW23      30.37F
HULETT         MOCLDY    37  21  52 N7        30.39R WCI  32
NEWCASTLE      FAIR      39  14  35 NW26G33   30.35R WCI  28

$$
WYZ014>020-022>026-101>103-112100-
CENTRAL WYOMING

CITY           SKY/WX    TMP DP  RH WIND       PRES   REMARKS
BIG PINEY      FAIR      52   3  13 N9        30.48F
PINEDALE       FAIR      52  10  19 NW23G31   30.45F
DUBOIS         FAIR      50  18  27 W22G32    30.43S
LANDER         FAIR      36  18  48 NW3       30.43F
RIVERTON       FAIR      33  19  56 CALM      30.45S
CASPER         FAIR      43  18  36 SW17      30.41F
DOUGLAS        FAIR      48  18  30 NW14      30.39F

$$
WYZ021-027>030-104>119-112100-
SOUTHERN WYOMING

CITY           SKY/WX    TMP DP  RH WIND       PRES   REMARKS
EVANSTON       FAIR      43  10  26 VRB3      30.54F
FORT BRIDGER   FAIR      54   4  13 NW10      30.54F
ROCK SPRINGS   FAIR      46   3  17 W6        30.48F
DIXON          FAIR      34  13  41 CALM      30.53S
RAWLINS        FAIR      39  12  33 W16       30.47S WCI  30
SARATOGA       FAIR      36  18  48 S8        30.49R WCI  29
LARAMIE        FAIR      45   4  18 N22G30    30.39S
CHEYENNE       FAIR      50   8  18 NW23G35   30.35F
TORRINGTON     FAIR      51  14  22 NW28G38   30.34F
PINE BLUFFS    FAIR      50   9  18 N23G30    30.36S

$$




USA.gov is the U.S. government's official web portal to all federal, state and local government web resources and services.